{"data":{"norad_id":56913,"epoch":"2026-09-20T16:44:00.124224Z","epoch_age_seconds":100395,"freshness":"FRESH","line1":"1 56913U 23083AP  26263.69722366 -.00000180  00000+0  29852-5 0  9990","line2":"2 56913  43.0030  49.2407 0001227 259.9415 100.1298 15.27576642181623","mean_motion":15.27576642,"eccentricity":0.0001227,"inclination_deg":43.003,"raan_deg":49.2407,"arg_perigee_deg":259.9415,"mean_anomaly_deg":100.1298,"bstar":2.9852e-6,"rev_number":18162,"period_min":94.266955935819,"perigee_km":482.21728235037,"apogee_km":483.90101988585,"semimajor_km":6861.1961511181,"source":"CELESTRAK","updated_at":"2026-09-21T09:00:33.527444Z"}}